Terminal Aerodrome Forecast
Issued by NWS Charleston, WV

Current Version | Previous Version | Graphics & Text | Print | Product List | Glossary On
Versions: 1 2 3 4 5 6 7 8 9 10 11 12 13 14 15 16 17 18 19 20 21 22 23 24 25 26
000
FTUS41 KRLX 151637 AAB
TAFEKN
TAF AMD
KEKN 151637Z 1517/1612 24009G20KT P6SM FEW070
     FM152100 24009KT P6SM BKN025
     FM160000 25009G17KT 6SM SHRA BR OVC008
     FM160300 30008KT 3SM SHRA BR OVC004
     FM160400 30008KT 3SM BR BKN003
     FM160800 31008KT 1/2SM FG OVC001=

USA.gov is the U.S. government's official web portal to all federal, state and local government web resources and services.